When you browse on this site, cookies collect data to enhance your experience and personalize the content and advertising you see.
Visit our Privacy Policy to learn more. By continuing to use the site, you agree to this use of cookies and data.
  • In Latvia
  • List of Countries
  • For 7 days
  • Water Temperature
  • Weather Map
  • Weather Widgets
  • user-avatar
    Login

    Hourly Weather Brisbane

    Today, 28 May, Thursday

    Time Temperature Precipitation Wind Pressure Humidity
    00:00 +16°C° 0 mm 0 mps 763 mmHg 71%
    01:00 +16°C° 0 mm 1 mps 763 mmHg 72%
    02:00 +16°C° 0 mm 1 mps 762 mmHg 73%
    03:00 +16°C° 0 mm 1 mps 762 mmHg 74%
    04:00 +15°C° 0 mm 0 mps 762 mmHg 73%
    05:00 +16°C° 0 mm 1 mps 763 mmHg 75%
    06:00 +16°C° 0 mm 1 mps 763 mmHg 76%
    07:00 +16°C° 0 mm 1 mps 764 mmHg 77%
    08:00 +19°C° 0 mm 1 mps 763 mmHg 71%
    09:00 +21°C° 0 mm 1 mps 763 mmHg 64%
    10:00 +23°C° 0 mm 1 mps 763 mmHg 57%
    11:00 +25°C° 0 mm 1 mps 763 mmHg 54%
    12:00 +26°C° 0 mm 1 mps 762 mmHg 51%
    13:00 +27°C° 0 mm 1 mps 762 mmHg 48%
    14:00 +27°C° 0 mm 1 mps 762 mmHg 50%
    15:00 +26°C° 0 mm 1 mps 762 mmHg 52%
    16:00 +25°C° 0 mm 1 mps 761 mmHg 57%
    17:00 +23°C° 0 mm 1 mps 762 mmHg 64%
    18:00 +22°C° 0 mm 1 mps 762 mmHg 71%
    19:00 +20°C° 0 mm 1 mps 763 mmHg 78%
    20:00 +20°C° 0.1 mm 1 mps 763 mmHg 79%
    21:00 +20°C° 0.1 mm 1 mps 763 mmHg 80%
    22:00 +19°C° 0.1 mm 1 mps 763 mmHg 82%
    23:00 +19°C° 0 mm 1 mps 763 mmHg 83%

    Tomorrow, 29 May, Friday

    Time Temperature Precipitation Wind Pressure Humidity
    00:00 +18°C° 0 mm 1 mps 763 mmHg 84%
    01:00 +18°C° 0 mm 1 mps 763 mmHg 85%
    02:00 +18°C° 0 mm 1 mps 763 mmHg 85%
    03:00 +16°C° 0 mm 2 mps 763 mmHg 86%
    04:00 +16°C° 0 mm 2 mps 763 mmHg 87%
    05:00 +16°C° 0 mm 2 mps 763 mmHg 87%
    06:00 +16°C° 0 mm 2 mps 764 mmHg 87%
    07:00 +16°C° 0 mm 2 mps 764 mmHg 88%
    08:00 +18°C° 0 mm 2 mps 764 mmHg 80%
    09:00 +20°C° 0 mm 3 mps 765 mmHg 72%
    10:00 +22°C° 0 mm 3 mps 765 mmHg 64%
    11:00 +22°C° 0 mm 3 mps 764 mmHg 60%
    12:00 +23°C° 0 mm 4 mps 764 mmHg 55%
    13:00 +25°C° 0 mm 4 mps 763 mmHg 51%
    14:00 +23°C° 0.1 mm 4 mps 764 mmHg 54%
    15:00 +23°C° 0.1 mm 4 mps 764 mmHg 57%
    16:00 +22°C° 0.1 mm 4 mps 764 mmHg 61%
    17:00 +21°C° 0 mm 4 mps 764 mmHg 65%
    18:00 +19°C° 0 mm 4 mps 765 mmHg 69%
    19:00 +18°C° 0 mm 4 mps 765 mmHg 74%
    20:00 +17°C° 0 mm 3 mps 765 mmHg 76%
    21:00 +17°C° 0 mm 3 mps 766 mmHg 79%
    22:00 +16°C° 0 mm 3 mps 766 mmHg 82%
    23:00 +16°C° 0 mm 2 mps 766 mmHg 83%

    Day after tomorrow, 30 May, Saturday

    Time Temperature Precipitation Wind Pressure Humidity
    00:00 +15°C° 0 mm 2 mps 766 mmHg 85%
    01:00 +15°C° 0 mm 2 mps 765 mmHg 86%
    02:00 +15°C° 0 mm 2 mps 765 mmHg 87%
    03:00 +14°C° 0 mm 2 mps 765 mmHg 88%
    04:00 +14°C° 0 mm 2 mps 766 mmHg 88%
    05:00 +14°C° 0 mm 2 mps 766 mmHg 88%
    06:00 +14°C° 0 mm 2 mps 766 mmHg 88%
    07:00 +14°C° 0 mm 2 mps 766 mmHg 88%
    08:00 +17°C° 0 mm 3 mps 767 mmHg 80%
    09:00 +19°C° 0 mm 3 mps 767 mmHg 73%
    10:00 +21°C° 0 mm 4 mps 767 mmHg 65%
    11:00 +22°C° 0 mm 4 mps 766 mmHg 61%
    12:00 +23°C° 0 mm 4 mps 766 mmHg 57%
    13:00 +23°C° 0 mm 5 mps 765 mmHg 53%
    14:00 +23°C° 0 mm 4 mps 765 mmHg 55%
    15:00 +22°C° 0 mm 4 mps 765 mmHg 57%
    16:00 +22°C° 0 mm 4 mps 765 mmHg 59%
    17:00 +20°C° 0 mm 3 mps 765 mmHg 65%
    18:00 +19°C° 0 mm 3 mps 765 mmHg 72%
    19:00 +18°C° 0 mm 3 mps 766 mmHg 78%
    20:00 +17°C° 0 mm 2 mps 766 mmHg 81%
    21:00 +17°C° 0 mm 2 mps 766 mmHg 83%
    22:00 +17°C° 0 mm 2 mps 766 mmHg 86%
    23:00 +16°C° 0.1 mm 2 mps 766 mmHg 86%

    31 May, Sunday

    Time Temperature Precipitation Wind Pressure Humidity
    00:00 +16°C° 0.1 mm 2 mps 766 mmHg 87%
    01:00 +16°C° 0.1 mm 2 mps 765 mmHg 88%
    02:00 +16°C° 0.1 mm 1 mps 765 mmHg 87%
    03:00 +16°C° 0.1 mm 1 mps 765 mmHg 86%
    04:00 +16°C° 0.1 mm 1 mps 765 mmHg 86%
    05:00 +16°C° 0 mm 1 mps 765 mmHg 86%
    06:00 +16°C° 0 mm 1 mps 765 mmHg 86%
    07:00 +15°C° 0 mm 2 mps 765 mmHg 87%
    08:00 +18°C° 0 mm 2 mps 765 mmHg 78%
    09:00 +21°C° 0 mm 1 mps 765 mmHg 70%
    10:00 +23°C° 0 mm 1 mps 765 mmHg 61%
    11:00 +24°C° 0 mm 1 mps 765 mmHg 55%
    12:00 +25°C° 0 mm 1 mps 764 mmHg 49%
    13:00 +26°C° 0 mm 1 mps 763 mmHg 43%
    14:00 +25°C° 0 mm 1 mps 763 mmHg 47%
    15:00 +25°C° 0 mm 2 mps 763 mmHg 50%
    16:00 +24°C° 0 mm 2 mps 763 mmHg 54%
    17:00 +21°C° 0 mm 2 mps 763 mmHg 63%
    18:00 +20°C° 0 mm 2 mps 763 mmHg 71%
    19:00 +18°C° 0 mm 2 mps 763 mmHg 80%
    20:00 +19°C° 0 mm 1 mps 763 mmHg 82%
    21:00 +18°C° 0 mm 1 mps 763 mmHg 84%
    22:00 +16°C° 0 mm 0 mps 764 mmHg 86%
    23:00 +18°C° 0 mm 1 mps 763 mmHg 87%

    1 June, Monday

    Time Temperature Precipitation Wind Pressure Humidity
    00:00 +18°C° 0 mm 1 mps 763 mmHg 88%
    01:00 +16°C° 0 mm 1 mps 763 mmHg 89%
    02:00 +16°C° 0 mm 1 mps 762 mmHg 89%
    03:00 +16°C° 0 mm 1 mps 762 mmHg 90%
    04:00 +15°C° 0 mm 1 mps 762 mmHg 90%
    05:00 +15°C° 0 mm 1 mps 762 mmHg 90%
    06:00 +15°C° 0 mm 1 mps 762 mmHg 90%
    07:00 +15°C° 0 mm 1 mps 762 mmHg 89%
    08:00 +19°C° 0 mm 1 mps 762 mmHg 79%
    09:00 +21°C° 0 mm 1 mps 762 mmHg 69%
    10:00 +23°C° 0 mm 1 mps 762 mmHg 58%
    11:00 +24°C° 0 mm 1 mps 761 mmHg 52%
    12:00 +26°C° 0 mm 2 mps 761 mmHg 47%
    13:00 +27°C° 0 mm 2 mps 760 mmHg 41%
    14:00 +26°C° 0 mm 2 mps 760 mmHg 44%
    15:00 +26°C° 0 mm 3 mps 760 mmHg 47%
    16:00 +25°C° 0 mm 3 mps 759 mmHg 51%
    17:00 +24°C° 0 mm 3 mps 760 mmHg 57%
    18:00 +21°C° 0 mm 3 mps 760 mmHg 63%
    19:00 +20°C° 0 mm 3 mps 760 mmHg 70%
    20:00 +19°C° 0 mm 3 mps 761 mmHg 69%
    21:00 +19°C° 0 mm 2 mps 761 mmHg 68%
    22:00 +19°C° 0 mm 2 mps 761 mmHg 67%
    23:00 +18°C° 0 mm 2 mps 761 mmHg 65%

    2 June, Tuesday

    Time Temperature Precipitation Wind Pressure Humidity
    00:00 +17°C° 0 mm 2 mps 761 mmHg 63%
    01:00 +17°C° 0 mm 3 mps 761 mmHg 62%
    02:00 +16°C° 0 mm 3 mps 761 mmHg 61%
    03:00 +14°C° 0 mm 3 mps 761 mmHg 61%
    04:00 +14°C° 0 mm 3 mps 761 mmHg 61%
    05:00 +13°C° 0 mm 3 mps 762 mmHg 63%
    06:00 +13°C° 0 mm 3 mps 763 mmHg 65%
    07:00 +12°C° 0 mm 3 mps 763 mmHg 67%
    08:00 +14°C° 0 mm 3 mps 764 mmHg 58%
    09:00 +16°C° 0 mm 3 mps 764 mmHg 49%
    10:00 +18°C° 0 mm 3 mps 764 mmHg 40%
    11:00 +19°C° 0 mm 3 mps 764 mmHg 35%
    12:00 +21°C° 0 mm 2 mps 763 mmHg 29%
    13:00 +23°C° 0 mm 2 mps 763 mmHg 24%
    14:00 +23°C° 0 mm 2 mps 763 mmHg 27%
    15:00 +21°C° 0 mm 2 mps 763 mmHg 31%
    16:00 +21°C° 0 mm 2 mps 763 mmHg 34%
    17:00 +19°C° 0 mm 2 mps 764 mmHg 43%
    18:00 +17°C° 0 mm 2 mps 765 mmHg 52%
    19:00 +15°C° 0 mm 2 mps 765 mmHg 60%
    20:00 +15°C° 0 mm 2 mps 766 mmHg 61%
    21:00 +14°C° 0 mm 2 mps 766 mmHg 62%
    22:00 +14°C° 0 mm 2 mps 767 mmHg 62%
    23:00 +13°C° 0 mm 2 mps 767 mmHg 63%
    Show more